Погода в Биласпуре

Индия     22°04′42″N   82°08′24″E
темп.,
°C
ветер,
м/с
пор.,
м/с
влажн.,
%
обл.,
%
осадки,
мм/ч
давл.,
гПа
погр.,
м
17 мая, пн
пн1723:30+32юз484651 0.0 1005383
02:30+31ююз114968 0.0 100422
05:30+32ююз244549 0.0 1006173
08:30+34юз34406 0.0 10081167
11:30+38ююз44305 0.0 10062173
14:30+41ю44215 0.0 10023049
17:30+40юз35200 0.0 10013348
20:30+37ссз112620 0.0 100318
18 мая, вт
вт1823:30+36юз122880 0.0 100320
02:30+34зюз48376 0.1 1003537
05:30+33зюз37455 0.3 1004351
08:30+36зюз68400 0.1 10061585
11:30+39зюз563185 0.1 10042976
14:30+42юз552448 0.0 10014037
17:30+41юз352171 0.0 10003465
20:30+37ююв133083 0.0 1002157
19 мая, ср
ср1923:30+34ссв574097 0.1 1003508
02:30+33ссз234498 0.0 1002114
05:30+32ююв124751 0.3 100357
08:30+36ююз443447 0.0 10051206
11:30+40зюз662619 0.0 10032956
14:30+42зюз662299 0.0 10003876
17:30+41зюз36215 0.0 9983160
20:30+38ююз362641 0.0 1000198
20 мая, чт
чт2023:30+36юз383198 0.0 1001261
02:30+34ююз24365 0.0 100174
05:30+32зюз22389 0.0 100225
08:30+37зюз45305 0.0 10041369
11:30+40зюз45235 0.0 10032722
14:30+42зюз461939 0.0 10003764
17:30+41зюз66189 0.0 9993665
20:30+38юз382258 0.0 1001210
21 мая, пт
пт2123:30+38з482526 0.0 1002653
02:30+34ссз223221 0.0 100120
05:30+32зсз22344 0.0 100327
08:30+37ссз442837 0.0 10051243
11:30+41зсз46215 0.0 10032720
14:30+43з67151 0.0 10003692
17:30+42зсз661525 0.0 9993515
20:30+37ссз612215 0.0 1002736